EW4565 Weather Reports


Display with metric or nautical units.
time (UTC)temp
F
wind
direction
speed
MPH
gust
MPH
rain 1hr
in
rain 24hr
in
rain mn
in
humidity
%
barometer
mb
20260904121734 0 0.0 0.0 0.00 0.21 0.10
20260904121230 49 93 0.0 0.0 0.00 0.21 0.10 90 1010.6
20260904120733 49 93 0.0 0.0 0.00 0.22 0.10 90 1010.6
20260904120243 49 93 0.0 0.0 0.00 0.22 0.10 90 1010.5
20260904115731 49 93 0.0 0.0 0.00 0.22 0.10 90 1010.5
20260904115413 49 93 0.0 0.0 0.00 0.22 0.10 90 1010.3
20260904115333 49 93 0.0 0.0 0.00 0.22 0.10 90 1010.5
20260904114546 49 93 0.0 0.0 0.00 0.23 0.10 90 1010.2
20260904113734 49 93 0.0 0.0 0.00 0.23 0.10 90 1010.1
20260904113232 49 93 0.0 0.0 0.00 0.24 0.10 90 1010.2
20260904112731 49 93 0.0 0.0 0.00 0.24 0.10 90 1010.2
20260904112230 49 93 0.0 0.0 0.00 0.24 0.10 90 1010.2
20260904112047 49 93 0.0 0.0 0.00 0.24 0.10 90 1010.2
20260904111243 49 93 0.0 0.0 0.00 0.24 0.10 90 1010.3
20260904110731 49 93 0.0 0.0 0.00 0.24 0.10 90 1010.3
20260904110244 49 93 0.0 0.0 0.00 0.24 0.10 90 1010.0
20260904105732 49 93 0.0 0.0 0.00 0.24 0.10 90 1009.9
20260904105230 49 93 0.0 0.0 0.00 0.24 0.10 90 1009.9
20260904104731 49 93 0.0 0.0 0.00 0.24 0.10 90 1010.0
20260904104231 49 93 0.0 0.0 0.00 0.24 0.10 90 1010.0
20260904103733 49 93 0.0 0.0 0.00 0.24 0.10 90 1009.9
20260904103234 49 93 0.0 0.0 0.00 0.24 0.10 90 1009.4
20260904102740 49 93 0.0 0.0 0.00 0.24 0.10 90 1009.5
20260904102230 49 93 0.0 0.0 0.00 0.24 0.10 89 1009.6
20260904102049 49 93 0.0 0.0 0.00 0.24 0.10 89 1009.7
20260904101550 49 93 0.0 0.0 0.01 0.24 0.10 89 1009.7
20260904100731 49 93 0.0 0.0 0.01 0.24 0.10 89 1009.5
20260904100230 49 93 0.0 0.0 0.01 0.24 0.10 89 1009.5
20260904095731 49 93 0.0 0.0 0.01 0.23 0.10 89 1009.5
20260904095233 50 93 0.0 2.0 0.01 0.23 0.10 89 1009.7
20260904095048 50 93 0.0 2.0 0.01 0.23 0.10 89 1009.6
20260904094232 50 93 0.0 0.0 0.01 0.23 0.10 89 1009.7
20260904093731 49 93 0.0 0.0 0.01 0.23 0.10 89 1009.9
20260904093230 50 93 0.0 0.0 0.02 0.23 0.10 89 1009.9
20260904092731 50 93 0.0 0.0 0.02 0.23 0.10 89 1009.7
20260904092231 50 93 0.0 0.0 0.02 0.23 0.10 89 1009.8
20260904091731 50 93 0.0 0.0 0.02 0.23 0.09 89 1010.1
20260904091231 50 93 0.0 0.0 0.02 0.23 0.09 89 1010.2
20260904090730 50 93 0.0 0.0 0.02 0.23 0.09 89 1010.1
20260904090243 50 93 0.0 0.0 0.03 0.23 0.09 89 1009.8
20260904085732 50 93 0.0 0.0 0.04 0.20 0.09 88 1009.7
20260904085231 50 93 0.0 0.0 0.05 0.20 0.09 88 1009.7
20260904084730 50 93 0.0 1.0 0.06 0.20 0.09 87 1009.6
20260904084231 50 93 0.0 1.0 0.06 0.20 0.09 87 1009.7
20260904083731 50 93 0.0 1.0 0.06 0.20 0.09 87 1009.7
20260904083544 50 93 0.0 0.0 0.06 0.20 0.09 87 1009.7
20260904082731 50 93 0.0 1.0 0.06 0.20 0.09 87 1009.6
20260904082232 50 93 0.0 1.0 0.06 0.20 0.08 87 1009.8
20260904081913 51 93 0.0 1.0 0.06 0.20 0.07 85 1010.0
20260904081832 51 93 0.0 0.0 0.06 0.20 0.08 87 1010.0
20260904080744 50 93 0.0 1.0 0.06 0.20 0.06 84 1010.1
20260904080231 51 93 0.0 0.0 0.06 0.20 0.06 85 1010.1
20260904075731 51 93 0.0 0.0 0.06 0.13 0.06 86 1010.0
20260904075230 51 93 0.0 0.0 0.05 0.13 0.05 84 1010.0
20260904075047 51 93 0.0 0.0 0.04 0.13 0.04 84 1010.0
20260904074546 51 93 0.0 0.0 0.03 0.13 0.03 83 1010.0
20260904073727 51 93 0.0 0.0 0.03 0.13 0.03 83 1009.9
20260904073550 51 93 0.0 0.0 0.02 0.13 0.02 82 1009.9
20260904072727 51 93 0.0 0.0 0.02 0.13 0.02 81 1009.9
20260904072543 52 93 0.0 0.0 0.02 0.13 0.02 79 1009.8
20260904071721 52 93 0.0 0.0 0.02 0.13 0.02 79 1009.8
20260904071236 52 93 0.0 0.0 0.02 0.13 0.02 78 1009.7
20260904070723 52 93 0.0 0.0 0.01 0.13 0.01 75 1009.7
20260904070536 53 93 0.0 0.0 0.00 0.13 0.00 72 1009.6
20260904065720 53 93 0.0 0.0 0.00 0.13 0.13 75 1009.6
20260904065217 53 93 0.0 0.0 0.00 0.13 0.13 72 1009.6
20260904064715 53 93 0.0 2.0 0.00 0.13 0.13 71 1009.6
20260904064216 53 93 0.0 2.0 0.00 0.13 0.13 69 1009.4
20260904063718 54 93 0.0 0.0 0.00 0.13 0.13 69 1009.2
20260904063216 54 93 0.0 0.0 0.00 0.13 0.13 68 1009.1
20260904062711 54 93 0.0 0.0 0.00 0.13 0.13 68 1009.1
20260904062519 54 93 0.0 0.0 0.00 0.13 0.13 68 1009.1
20260904061712 54 93 0.0 0.0 0.00 0.13 0.13 68 1009.4
20260904061525 54 93 0.0 0.0 0.00 0.13 0.13 67 1009.5
20260904060706 54 93 0.0 0.0 0.00 0.13 0.13 67 1009.5
20260904060515 54 93 0.0 1.0 0.00 0.13 0.13 67 1009.5
20260904055703 54 93 0.0 1.0 0.00 0.13 0.13 67 1009.6
20260904055217 54 93 0.0 1.0 0.00 0.13 0.13 67 1009.7
20260904054703 54 93 0.0 1.0 0.00 0.13 0.13 67 1009.6
20260904054207 54 93 0.0 0.0 0.00 0.13 0.13 66 1009.6
20260904053809 54 93 0.0 3.0 0.00 0.13 0.13 65 1009.6
20260904052708 54 93 0.0 3.0 0.00 0.13 0.13 64 1009.5
20260904052219 54 93 0.0 3.0 0.00 0.13 0.13 63 1009.5
20260904051708 54 93 0.0 3.0 0.00 0.13 0.13 64 1009.6
20260904051207 55 94 0.0 3.0 0.00 0.13 0.13 64 1009.7
20260904050704 55 94 0.0 2.0 0.00 0.13 0.13 63 1009.6
20260904050202 55 94 0.0 1.0 0.00 0.13 0.13 64 1009.7
20260904045702 54 94 0.0 0.0 0.00 0.13 0.13 64 1009.9
20260904045205 54 94 0.0 0.0 0.00 0.13 0.13 65 1009.8
20260904045019 54 94 0.0 0.0 0.00 0.13 0.13 65 1009.9
20260904044216 54 94 0.0 0.0 0.00 0.13 0.13 64 1009.8
20260904043717 54 94 0.0 0.0 0.00 0.13 0.13 64 1009.8
20260904043203 54 94 0.0 0.0 0.00 0.13 0.13 65 1009.9
20260904042703 54 94 0.0 0.0 0.00 0.13 0.13 66 1009.8
20260904042218 54 94 0.0 0.0 0.00 0.13 0.13 66 1009.9
20260904042008 54 94 0.0 0.0 0.00 0.13 0.13 66 1009.9
20260904041218 54 94 0.0 0.0 0.00 0.13 0.13 66 1009.8
20260904040709 55 94 0.0 0.0 0.00 0.13 0.13 66 1009.8
20260904040209 55 94 0.0 0.0 0.00 0.13 0.13 65 1009.7
20260904035701 55 94 0.0 0.0 0.00 0.13 0.13 64 1009.7
20260904035203 55 94 0.0 0.0 0.00 0.13 0.13 64 1009.6
20260904034701 55 94 0.0 0.0 0.00 0.13 0.13 64 1009.6
20260904034202 55 94 0.0 0.0 0.00 0.13 0.13 64 1009.6
20260904034021 55 94 0.0 0.0 0.00 0.13 0.13 64 1009.6
20260904033203 56 94 0.0 0.0 0.00 0.13 0.13 64 1009.7
20260904032701 56 94 0.0 0.0 0.00 0.13 0.13 63 1009.7
20260904032203 56 94 0.0 0.0 0.00 0.13 0.13 63 1009.6
20260904031701 56 94 0.0 0.0 0.00 0.13 0.13 62 1009.6
20260904031202 56 94 0.0 0.0 0.00 0.13 0.13 62 1009.6
20260904030705 57 94 0.0 0.0 0.00 0.13 0.13 62 1009.6
20260904030204 57 94 0.0 0.0 0.00 0.13 0.13 60 1009.5
20260904025704 58 94 0.0 0.0 0.00 0.13 0.13 60 1009.5
20260904025204 58 94 0.0 0.0 0.00 0.13 0.13 60 1009.6
20260904024826 59 94 0.0 0.0 0.00 0.13 0.13 59 1009.4
20260904024752 58 94 0.0 0.0 0.00 0.13 0.13 59 1009.5
20260904024002 0 0.0 0.0 0.00 0.13 0.13
20260904023506 0 0.0 0.0 0.00 0.13 0.13
20260904022952 0 0.0 0.0 0.00 0.13 0.13
20260904022450 0 0.0 0.0 0.00 0.13 0.13
20260904021934 60 94 0.0 0.0 0.00 0.13 0.13 57 1009.5
20260904021431 60 94 0.0 0.0 0.00 0.13 0.13 57 1009.5
20260904020932 61 94 0.0 0.0 0.00 0.13 0.13 57 1009.5
20260904020431 61 94 0.0 0.0 0.00 0.13 0.13 56 1009.5
20260904015933 62 95 0.0 0.0 0.00 0.13 0.13 54 1009.5
20260904015432 62 95 0.0 0.0 0.00 0.13 0.13 54 1009.5
20260904015247 62 94 0.0 2.0 0.00 0.13 0.13 52 1009.5
20260904014430 63 95 0.0 2.0 0.00 0.13 0.13 52 1009.5
20260904013932 63 94 0.0 3.0 0.00 0.13 0.13 51 1009.5
20260904013619 63 103 0.0 5.0 0.00 0.13 0.13 50 1009.5
20260904013534 63 94 0.0 5.0 0.00 0.13 0.13 49 1009.5
20260904012630 64 99 1.0 5.0 0.00 0.13 0.13 48 1009.6
20260904012541 64 73 1.0 5.0 0.00 0.13 0.13 49 1009.5
20260904011431 65 108 1.0 4.0 0.00 0.13 0.13 48 1009.6
20260904010945 65 139 1.0 4.0 0.00 0.13 0.13 47 1009.6
20260904010443 65 56 1.0 4.0 0.00 0.13 0.13 45 1009.6
20260904010246 65 83 1.0 4.0 0.00 0.13 0.13 45 1009.6
20260904005442 65 110 0.0 3.0 0.00 0.13 0.13 42 1009.7
20260904004931 65 113 0.0 3.0 0.00 0.13 0.13 42 1009.6
20260904004749 65 64 0.0 3.0 0.00 0.13 0.13 42 1009.7
20260904004245 66 64 0.0 2.0 0.00 0.13 0.13 42 1009.6
20260904003806 67 64 0.0 2.0 0.00 0.13 0.13 40 1009.7
20260904002928 67 58 0.0 6.0 0.00 0.13 0.13 40 1009.7
20260904002741 68 47 0.0 6.0 0.00 0.13 0.13 39 1009.6
20260904001928 68 185 1.0 4.0 0.00 0.13 0.13 38 1009.6
20260904001428 68 144 1.0 4.0 0.00 0.13 0.13 37 1009.6
20260904001035 67 37 1.0 4.0 0.00 0.13 0.13 40 1009.6
20260903235922 66 77 0.0 3.0 0.00 0.13 0.13 41 1009.6
20260903235420 66 67 0.0 2.0 0.00 0.13 0.13 42 1009.6
20260903234923 65 68 0.0 2.0 0.00 0.13 0.13 41 1009.6
20260903234420 65 68 0.0 5.0 0.00 0.13 0.13 40 1009.5
20260903233918 66 67 0.0 5.0 0.00 0.13 0.13 40 1009.6
20260903233412 66 68 1.0 5.0 0.00 0.13 0.13 39 1009.7
20260903232912 67 66 1.0 5.0 0.00 0.13 0.13 41 1009.7
20260903232412 68 78 0.0 4.0 0.00 0.13 0.13 41 1009.8
20260903231921 67 99 0.0 3.0 0.00 0.13 0.13 41 1009.9
20260903231548 67 93 1.0 4.0 0.00 0.13 0.13 42 1009.9
20260903231514 67 93 0.0 4.0 0.00 0.13 0.13 41 1009.9
20260903230413 67 88 1.0 5.0 0.00 0.13 0.13 43 1010.0
20260903225915 67 112 1.0 5.0 0.00 0.13 0.13 42 1010.0
20260903225414 67 190 1.0 5.0 0.00 0.13 0.13 41 1010.0
20260903224915 67 140 1.0 5.0 0.00 0.13 0.13 40 1010.0
20260903224546 67 96 1.0 5.0 0.00 0.13 0.13 44 1010.1
20260903224513 67 54 1.0 5.0 0.00 0.13 0.13 45 1010.1
20260903223413 66 251 2.0 5.0 0.00 0.13 0.13 44 1010.1
20260903223051 66 140 1.0 5.0 0.00 0.13 0.13 47 1010.2
20260903223018 66 135 1.0 5.0 0.00 0.13 0.13 44 1010.1
20260903221920 65 131 2.0 4.0 0.00 0.13 0.13 46 1010.2
20260903221730 65 67 1.0 4.0 0.00 0.13 0.13 47 1010.2
20260903220912 65 67 1.0 5.0 0.00 0.13 0.13 51 1010.3
20260903220412 65 125 1.0 5.0 0.00 0.13 0.13 49 1010.3
20260903215913 64 66 1.0 5.0 0.00 0.13 0.13 50 1010.2
20260903215415 64 66 1.0 6.0 0.00 0.13 0.13 51 1010.3
20260903214911 64 54 1.0 6.0 0.00 0.13 0.13 52 1010.4
20260903214412 64 63 2.0 8.0 0.00 0.13 0.13 55 1010.4
20260903213911 63 77 2.0 8.0 0.00 0.13 0.13 58 1010.5
20260903213410 63 83 1.0 6.0 0.00 0.13 0.13 59 1010.5
20260903212911 62 59 2.0 7.0 0.00 0.13 0.13 62 1010.5
20260903212406 60 87 2.0 9.0 0.00 0.13 0.13 67 1010.5
20260903211909 59 50 2.0 9.0 0.00 0.13 0.13 67 1010.5
20260903211405 59 57 2.0 7.0 0.00 0.13 0.13 65 1010.8
20260903210908 59 64 2.0 7.0 0.00 0.13 0.13 63 1011.1
20260903210409 60 64 1.0 6.0 0.00 0.13 0.13 58 1011.3
20260903205906 60 48 1.0 6.0 0.00 0.13 0.13 60 1011.2
20260903205408 60 60 1.0 5.0 0.00 0.13 0.13 58 1011.1
20260903204908 60 82 0.0 4.0 0.00 0.13 0.13 59 1010.9
20260903204407 60 69 1.0 6.0 0.00 0.13 0.13 60 1010.9
20260903203907 60 136 1.0 6.0 0.00 0.13 0.13 61 1010.9
20260903203406 60 77 1.0 7.0 0.00 0.13 0.13 60 1010.8
20260903203224 60 111 1.0 7.0 0.00 0.13 0.13 59 1010.8
20260903202408 60 175 1.0 7.0 0.00 0.13 0.13 62 1010.7
20260903201908 61 56 2.0 7.0 0.00 0.13 0.13 60 1010.6
20260903201407 61 152 2.0 11.0 0.00 0.13 0.13 58 1010.6
20260903200909 61 42 2.0 11.0 0.00 0.13 0.13 60 1010.6
20260903200418 62 182 1.0 6.0 0.00 0.13 0.13 60 1010.6
20260903195907 62 215 1.0 6.0 0.00 0.13 0.13 54 1010.6
20260903195720 62 112 0.0 3.0 0.00 0.13 0.13 56 1010.6
20260903194908 61 104 1.0 4.0 0.00 0.13 0.13 57 1010.6
20260903194715 61 104 1.0 5.0 0.00 0.13 0.13 57 1010.6
20260903193908 61 65 1.0 5.0 0.00 0.13 0.13 56 1010.6
20260903193406 61 87 1.0 8.0 0.00 0.13 0.13 56 1010.5
20260903192906 61 57 1.0 8.0 0.00 0.13 0.13 56 1010.5
20260903192404 61 150 2.0 10.0 0.00 0.13 0.13 55 1010.3
20260903191907 62 47 2.0 10.0 0.00 0.13 0.13 54 1010.5
20260903191724 62 155 1.0 9.0 0.00 0.13 0.13 56 1010.5
20260903191223 62 131 2.0 9.0 0.00 0.13 0.13 58 1010.5
20260903190402 62 198 1.0 8.0 0.00 0.13 0.13 56 1010.5
20260903190228 63 62 1.0 8.0 0.00 0.13 0.13 60 1010.5
20260903185404 63 128 1.0 6.0 0.00 0.13 0.13 64 1010.2
20260903184904 62 23 2.0 6.0 0.00 0.13 0.13 63 1010.2
20260903184402 62 73 2.0 7.0 0.00 0.13 0.13 64 1010.3
20260903183914 61 54 1.0 7.0 0.00 0.13 0.13 65 1010.3
20260903183726 60 72 1.0 5.0 0.00 0.13 0.13 65 1010.2
20260903182904 61 101 1.0 5.0 0.00 0.13 0.13 66 1010.3
20260903182408 61 148 1.0 5.0 0.00 0.13 0.13 64 1010.3
20260903181901 62 46 1.0 5.0 0.00 0.13 0.13 63 1010.2
20260903181359 62 143 1.0 4.0 0.00 0.13 0.13 62 1009.9
20260903180921 63 118 1.0 4.0 0.00 0.13 0.13 63 1010.0
20260903180402 64 68 1.0 8.0 0.00 0.13 0.13 65 1009.9
20260903175909 64 95 2.0 8.0 0.00 0.13 0.13 62 1009.8
20260903175400 63 70 2.0 6.0 0.00 0.13 0.13 68 1009.7
20260903174856 62 108 2.0 6.0 0.00 0.13 0.13 71 1009.7
20260903174410 62 127 2.0 9.0 0.00 0.13 0.13 71 1009.8
20260903173856 61 163 2.0 9.0 0.00 0.13 0.13 72 1009.8
20260903173411 61 155 2.0 7.0 0.00 0.13 0.13 75 1009.7
20260903173211 61 43 2.0 7.0 0.00 0.13 0.13 76 1009.6
20260903172724 60 56 1.0 6.0 0.00 0.13 0.13 79 1009.6
20260903171856 58 133 1.0 9.0 0.00 0.13 0.13 84 1009.6
20260903171357 57 51 1.0 9.0 0.00 0.13 0.13 84 1009.6
20260903171226 56 160 1.0 9.0 0.00 0.13 0.13 85 1009.5
20260903170354 56 93 1.0 9.0 0.00 0.13 0.13 85 1009.4
20260903170222 56 68 1.0 6.0 0.00 0.13 0.13 86 1009.5
20260903165356 56 63 0.0 6.0 0.00 0.13 0.13 86 1009.5
20260903164856 55 62 0.0 3.0 0.00 0.13 0.13 87 1009.5
20260903164354 55 62 1.0 4.0 0.00 0.13 0.13 87 1009.5
20260903163855 55 59 1.0 4.0 0.00 0.13 0.13 87 1009.5
20260903163343 55 56 0.0 5.0 0.00 0.13 0.13 87 1009.5
20260903162843 55 55 0.0 5.0 0.00 0.13 0.13 87 1009.5
20260903162343 55 56 0.0 3.0 0.00 0.13 0.13 87 1009.5
20260903161838 55 56 0.0 5.0 0.00 0.13 0.13 87 1009.4
20260903161338 54 55 0.0 5.0 0.00 0.13 0.13 87 1009.4
20260903160841 54 55 0.0 4.0 0.00 0.13 0.13 88 1009.4
20260903160337 54 55 0.0 4.0 0.00 0.13 0.13 88 1009.2
20260903160159 54 55 0.0 2.0 0.00 0.13 0.13 88 1009.2
20260903155337 54 55 0.0 2.0 0.00 0.13 0.13 89 1009.2
20260903154837 54 55 0.0 3.0 0.00 0.13 0.13 89 1009.4
20260903154336 54 55 0.0 3.0 0.01 0.13 0.13 88 1009.2
20260903153837 54 55 0.0 1.0 0.01 0.13 0.13 89 1009.1
20260903153337 54 55 0.0 3.0 0.01 0.13 0.13 89 1009.1
20260903152835 54 55 0.0 4.0 0.02 0.13 0.13 89 1009.1
20260903152520 54 55 0.0 3.0 0.02 0.13 0.13 89 1008.9
20260903152439 54 55 0.0 4.0 0.02 0.13 0.13 89 1009.0
20260903151332 54 55 0.0 3.0 0.02 0.13 0.13 89 1008.9
20260903150832 54 55 0.0 3.0 0.02 0.13 0.13 89 1008.9
20260903150500 54 55 0.0 0.0 0.04 0.09 0.13 89 1008.9
20260903150430 54 55 0.0 3.0 0.03 0.13 0.13 89 1008.8
20260903145331 54 55 0.0 0.0 0.05 0.09 0.13 89 1008.8
20260903145144 54 55 0.0 1.0 0.05 0.09 0.13 89 1008.8
20260903144644 53 55 0.0 4.0 0.04 0.09 0.13 89 1008.9
20260903143834 53 55 0.0 4.0 0.05 0.09 0.13 89 1008.8
20260903143332 53 55 0.0 4.0 0.05 0.09 0.12 89 1008.8
20260903142831 53 55 0.0 1.0 0.04 0.09 0.12 90 1008.7
20260903142330 53 55 0.0 1.0 0.05 0.09 0.12 90 1008.7
20260903141834 53 55 0.0 2.0 0.05 0.09 0.12 89 1008.7
20260903141332 53 55 0.0 2.0 0.04 0.09 0.11 89 1008.6
20260903141152 53 55 0.0 2.0 0.05 0.09 0.10 89 1008.6
20260903140331 53 55 0.0 2.0 0.04 0.09 0.09 89 1008.6
20260903135832 53 55 0.0 2.0 0.04 0.06 0.09 90 1008.6
20260903135329 53 55 0.0 0.0 0.03 0.06 0.09 90 1008.4
20260903134830 53 55 0.0 0.0 0.04 0.06 0.09 90 1008.5
20260903134330 53 55 0.0 0.0 0.01 0.06 0.09 90 1008.3
20260903133827 53 55 0.0 0.0 0.02 0.06 0.08 90 1008.3
20260903133327 53 55 0.0 0.0 0.02 0.06 0.08 90 1008.2
20260903133148 53 55 0.0 0.0 0.02 0.06 0.08 89 1008.1
20260903132327 53 55 0.0 0.0 0.02 0.06 0.07 89 1008.1
20260903132201 53 55 0.0 0.0 0.03 0.06 0.07 89 1008.1
20260903131328 53 55 0.0 0.0 0.03 0.06 0.07 89 1008.1
20260903130828 53 55 0.0 0.0 0.04 0.06 0.06 89 1008.0
20260903130328 53 55 0.0 0.0 0.04 0.06 0.06 89 1008.0
20260903125826 53 55 0.0 0.0 0.00 0.02 0.06 89 1007.9
20260903125649 53 55 0.0 0.0 0.00 0.02 0.06 89 1007.9
20260903125125 53 55 0.0 0.0 0.00 0.02 0.05 89 1007.9
20260903124556 53 55 0.0 0.0 0.04 0.05 0.05 89 1007.9
20260903124056 53 55 0.0 0.0 0.03 0.04 0.04 89 1007.7
20260903123549 53 55 0.0 0.0 0.03 0.04 0.04 89 1007.7
20260903123405 53 55 0.0 0.0 0.04 0.04 0.03 89 1007.7
20260903122547 53 55 0.0 0.0 0.03 0.03 0.03 89 1007.7